INTELSAT 906 (IS-906)

Last updated on Oct. 23, 2020, 5:56 a.m. UTC

1 27513U 02041A   20296.83862550  .00000000  00000-0  00000-0 0  9991
2 27513   0.5833  97.6530 0003297 121.9430 178.1995  1.00271650 66330
UTC
Height (km)
Latitude
Longitude
Inclination
Orbital Period
UTC large
Height (km)
Speed (km/s)
/
Latitude / Longitude
Inclination (degrees)
Orbital Period (minutes)
Azimuth
Elevation
Range (km)
Doppler Factor
iOS Compass Heading
iOS Angle

Next 30 passes for location: Hong Kong

Rise time Rise Azimuth (degrees) Set time Set Azimuth (degrees) Duration Max altitude (degrees)

No matching passes for this satellites